Regional Weather Roundup
Issued by NWS

Home | Current Version | Previous Version | Graphics & Text | Print | Product List | Glossary On
Versions: 1 2 3 4 5 6 7 8 9 10 11 12 13 14 15 16 17 18 19 20 21 22 23 24 25 26 27 28 29 30 31 32 33 34 35 36 37 38 39 40 41 42 43 44 45 46 47 48 49 50
000
ASUS44 KMEG 300910
RWRTN
TENNESSEE HOURLY STATE WEATHER ROUNDUP
NATIONAL WEATHER SERVICE MEMPHIS TN
400 AM CDT SAT MAY 30 2015

TNZ002-004-019-021-049-052-054-088>092-301000-
WEST TENNESSEE

CITY           SKY/WX    TMP DP  RH WIND       PRES   REMARKS
MEMPHIS INTL   MOCLDY    73  68  84 S13       29.97F
NWS MEMPHIS      N/A     71 N/A N/A MISG        N/A
JACKSON        CLEAR     72  66  81 S6        30.00F
DYERSBURG      CLOUDY   N/A N/A N/A S7        29.97F
PARIS          MOCLDY    72  66  83 S9        30.02S
LEXINGTON      PTCLDY    70  66  88 SE5       30.03S
$$

TNZ008-025-027-028-033-062-065-066-301000-
NORTH MIDDLE TENNESSEE

CITY           SKY/WX    TMP DP  RH WIND       PRES   REMARKS
NASHVILLE      PTCLDY    69  64  84 S6        30.08S
CLARKSVILLE    MOCLDY    69  65  86 S3        30.04S
SMYRNA         CLEAR     67  64  90 CALM      30.09S
COOKEVILLE     CLEAR     70  66  88 CALM      30.11S
CROSSVILLE     CLOUDY    69  61  75 CALM      30.17S
$$

TNZ061-075-076-078-094-096-097-301000-
SOUTH MIDDLE TENNESSEE

CITY           SKY/WX    TMP DP  RH WIND       PRES   REMARKS
FAYETTEVILLE   CLEAR    N/A N/A N/A MISG      30.11S
TULLAHOMA      CLEAR     66  64  94 S5        30.13R
WINCHESTER     MOCLDY    68  64  88 CALM      30.12S
MCMINNVILLE    MOCLDY    68  68 100 CALM      30.12R
COLUMBIA       CLEAR     70  66  88 S3        30.06S
SHELBYVILLE    CLEAR     68  66  94 SE3       30.11R
$$

TNZ017-018-042-046-047-301000-
NORTHEAST TENNESSEE

CITY           SKY/WX    TMP DP  RH WIND       PRES   REMARKS
TRI CITIES     NOT AVBL
ELIZABETHTON   SUNNY     61  59  94 CALM      30.19S
$$

TNZ012-013-036-069-073-074-301000-
CENTRAL EAST TENNESSEE

CITY           SKY/WX    TMP DP  RH WIND       PRES   REMARKS
KNOXVILLE      PTCLDY    66  63  90 E3        30.13S
OAK RIDGE      MOCLDY    68  65  90 CALM      30.15S
GATLINBURG     PTSUNNY   61  61 100 CALM      30.15R VSB 3/4
MORRISTOWN     SUNNY     63  63 100 CALM      30.17R
$$

TNZ083-085-099-301000-
SOUTHEAST TENNESSEE

CITY           SKY/WX    TMP DP  RH WIND       PRES   REMARKS
CHATTANOOGA    PTCLDY    69  68  96 CALM      30.13R
$$

SKY/WX REPORTED AS FAIR MEANS FEW OR NO CLOUDS BELOW
12 THOUSAND FEET.



USA.gov is the U.S. government's official web portal to all federal, state and local government web resources and services.